�������r�C�����j�^�v���󋵏��
Date,Time,5�C6���@���p�r�C��,����,����(m/s)
2021/11/22,00:00,3.8,��,2.3
2021/11/22,00:10,4.2,��,1.7
2021/11/22,00:20,3.8,��쐼,1.7
2021/11/22,00:30,3.8,��쐼,1.5
2021/11/22,00:40,4.0,���쐼,1.7
2021/11/22,00:50,3.9,��,1.2
2021/11/22,01:00,4.0,���k��,1.4
2021/11/22,01:10,3.9,���k��,1.5
2021/11/22,01:20,3.9,�k��,2.2
2021/11/22,01:30,4.0,���k��,1.9
2021/11/22,01:40,3.9,���k��,0.9
2021/11/22,01:50,3.8,���k��,0.9
2021/11/22,02:00,3.9,���k��,1.1
2021/11/22,02:10,4.0,���k��,0.9
2021/11/22,02:20,3.9,���k��,0.8
2021/11/22,02:30,3.8,-,CALM
2021/11/22,02:40,3.9,�k��,1.1
2021/11/22,02:50,3.9,���k��,0.9
2021/11/22,03:00,4.0,-,CALM
2021/11/22,03:10,4.0,�k,0.9
2021/11/22,03:20,3.8,�k��,1.2
2021/11/22,03:30,4.0,���k��,1.7
2021/11/22,03:40,3.9,-,CALM
2021/11/22,03:50,3.8,�k��,1.2
2021/11/22,04:00,3.9,�k��,1.7
2021/11/22,04:10,3.9,�k��,1.7
2021/11/22,04:20,3.9,�k��,1.7
2021/11/22,04:30,3.8,�k�k��,1.5
2021/11/22,04:40,4.0,�k�k��,1.7
2021/11/22,04:50,3.9,�k�k��,2.8
2021/11/22,05:00,4.0,�k�k��,2.2
2021/11/22,05:10,4.0,�k��,2.2
2021/11/22,05:20,4.0,�k��,2.2
2021/11/22,05:30,3.9,�k��,2.0
2021/11/22,05:40,3.9,�k��,2.9
2021/11/22,05:50,3.9,�k��,3.5
2021/11/22,06:00,3.7,�k��,3.2
2021/11/22,06:10,3.9,�k��,2.8
2021/11/22,06:20,3.8,�k��,2.8
2021/11/22,06:30,3.9,�k��,2.3
2021/11/22,06:40,4.0,�k�k��,2.8
2021/11/22,06:50,3.9,���k��,1.7
2021/11/22,07:00,3.9,���k��,1.4
2021/11/22,07:10,4.0,�k�k��,0.9
2021/11/22,07:20,3.9,�k�k��,1.5
2021/11/22,07:30,4.0,�k�k��,1.1
2021/11/22,07:40,3.9,�k�k��,0.6
2021/11/22,07:50,3.8,���쓌,1.2
2021/11/22,08:00,4.0,�k�k��,1.7
2021/11/22,08:10,4.0,�k��,2.5
2021/11/22,08:20,3.9,�k�k��,2.5
2021/11/22,08:30,4.0,�k��,0.9
2021/11/22,08:40,4.0,�쓌,1.4
2021/11/22,08:50,4.0,�쓌,2.8
2021/11/22,09:00,4.0,�쓌,2.5
2021/11/22,09:10,3.9,���쓌,0.9
2021/11/22,09:20,3.9,��쓌,1.4
2021/11/22,09:30,4.1,�쓌,1.7
2021/11/22,09:40,4.0,��쓌,3.0
2021/11/22,09:50,4.0,��쓌,4.6
2021/11/22,10:00,3.8,��,4.8
2021/11/22,10:10,3.9,��,5.7
2021/11/22,10:20,3.9,��쓌,6.1
2021/11/22,10:30,3.9,��쓌,7.7
2021/11/22,10:40,3.7,��,7.3
2021/11/22,10:50,3.9,��쓌,8.9
2021/11/22,11:00,4.1,��,7.9
2021/11/22,11:10,3.8,��,7.3
2021/11/22,11:20,3.9,��,6.3
2021/11/22,11:30,3.9,��,6.4
2021/11/22,11:40,4.0,��,7.0
2021/11/22,11:50,4.0,��,6.6
2021/11/22,12:00,4.0,��,5.8
2021/11/22,12:10,4.0,��,6.5
2021/11/22,12:20,4.0,��,6.5
2021/11/22,12:30,3.9,��,7.2
2021/11/22,12:40,4.0,��,7.5
2021/11/22,12:50,3.9,��,6.5
2021/11/22,13:00,3.9,��,5.8
2021/11/22,13:10,4.3,��,4.8
2021/11/22,13:20,3.7,��,6.9
2021/11/22,13:30,4.0,��쐼,6.0
2021/11/22,13:40,4.0,�k�k��,8.4
2021/11/22,13:50,4.0,��,8.9
2021/11/22,14:00,4.0,��,8.5
2021/11/22,14:10,4.0,��,8.2
2021/11/22,14:20,4.0,��,7.6
2021/11/22,14:30,4.0,��,10.5
2021/11/22,14:40,4.0,��,8.3
2021/11/22,14:50,3.7,��쐼,9.0
2021/11/22,15:00,3.9,��,8.6
2021/11/22,15:10,4.1,��,8.3
2021/11/22,15:20,3.8,��,10.6
2021/11/22,15:30,3.9,��,10.9
2021/11/22,15:40,3.8,��,8.4
2021/11/22,15:50,4.0,��,11.7
2021/11/22,16:00,4.0,��,9.7
2021/11/22,16:10,4.0,��,10.6
2021/11/22,16:20,3.9,��,9.7
2021/11/22,16:30,3.9,��,10.1
2021/11/22,16:40,4.0,��,8.5
2021/11/22,16:50,3.9,��,7.9
2021/11/22,17:00,3.8,��,8.2
2021/11/22,17:10,3.8,��,7.2
2021/11/22,17:20,3.8,��,6.5
2021/11/22,17:30,3.8,��,7.3
2021/11/22,17:40,3.9,��쐼,7.1
2021/11/22,17:50,4.0,��쐼,4.8
2021/11/22,18:00,3.7,��,7.7
2021/11/22,18:10,4.0,��,8.7
2021/11/22,18:20,4.0,��,7.7
2021/11/22,18:30,3.9,��,7.4
2021/11/22,18:40,4.0,��,8.6
2021/11/22,18:50,3.9,��,9.4
2021/11/22,19:00,4.0,��,8.0
2021/11/22,19:10,3.9,��,7.0
2021/11/22,19:20,4.0,��쐼,6.2
2021/11/22,19:30,4.0,��,5.9
2021/11/22,19:40,3.9,��,5.7
2021/11/22,19:50,3.8,��,5.4
2021/11/22,20:00,4.2,��,3.9
2021/11/22,20:10,3.9,���k��,9.6
2021/11/22,20:20,4.0,���k��,6.9
2021/11/22,20:30,3.8,��,6.5
2021/11/22,20:40,3.9,��,6.8
2021/11/22,20:50,4.0,���k��,9.6
2021/11/22,21:00,4.1,���k��,10.0
2021/11/22,21:10,3.7,���k��,9.7
2021/11/22,21:20,3.9,�k��,8.3
2021/11/22,21:30,3.9,�k��,6.3
2021/11/22,21:40,3.9,�k��,9.0
2021/11/22,21:50,3.9,�k��,5.0
2021/11/22,22:00,3.9,�k��,5.6
2021/11/22,22:10,3.9,�k��,7.2
2021/11/22,22:20,3.9,�k��,6.1
2021/11/22,22:30,3.8,�k��,5.7
2021/11/22,22:40,3.9,�k�k��,3.6
2021/11/22,22:50,3.8,�k�k��,2.6
2021/11/22,23:00,3.8,�k�k��,4.4
2021/11/22,23:10,3.9,�k�k��,5.2
2021/11/22,23:20,3.9,�k��,5.3
2021/11/22,23:30,4.1,���k��,7.5
2021/11/22,23:40,4.1,���k��,11.6
2021/11/22,23:50,4.0,���k��,9.3
